,,,PA_Meas_PMT16A,,PR_Meas_QMR101_102,,RH_Meas_QMH101,,SR_Meas_QMS101,,TA_Meas_QMH101,,GenWind,,GenWind,
date,time,status,PA,status,PR,status,RH,status,SR,status,TA,status,DirAvg,status,SpdAvg,
2012-07-02, 00:00:04,VALID,1008.43,VALID,0,VALID,104,VALID,0,VALID,24.6099,VALID,55,VALID,0,
2012-07-02, 00:01:04,VALID,1008.45,VALID,0,VALID,104,VALID,0,VALID,24.6099,VALID,55,VALID,0,
2012-07-02, 00:02:04,VALID,1008.43,VALID,0,VALID,104,VALID,0,VALID,24.5905,VALID,55,VALID,0,
2012-07-02, 00:03:04,VALID,1008.38,VALID,0,VALID,104,VALID,0,VALID,24.5905,VALID,55,VALID,0,
2012-07-02, 00:04:04,VALID,1008.37,VALID,0,VALID,104,VALID,0,VALID,24.5905,VALID,55,VALID,0,
2012-07-02, 00:05:04,VALID,1008.34,VALID,0,VALID,104,VALID,0,VALID,24.5905,VALID,55,VALID,0,
2012-07-02, 00:06:04,VALID,1008.31,VALID,0,VALID,104,VALID,0,VALID,24.571,VALID,55,VALID,0,
2012-07-02, 00:07:04,VALID,1008.31,VALID,0,VALID,104,VALID,0,VALID,24.5125,VALID,55,VALID,0,
2012-07-02, 00:08:04,VALID,1008.3,VALID,0,VALID,104,VALID,0,VALID,24.493,VALID,55,VALID,0,
2012-07-02, 00:09:04,VALID,1008.29,VALID,0,VALID,104,VALID,0,VALID,24.4735,VALID,55,VALID,0,
2012-07-02, 00:10:04,VALID,1008.29,VALID,0,VALID,104,VALID,0,VALID,24.454,VALID,55,VALID,0,
2012-07-02, 00:11:04,VALID,1008.29,VALID,0,VALID,104,VALID,0,VALID,24.4345,VALID,55,VALID,0,
2012-07-02, 00:12:04,VALID,1008.29,VALID,0,VALID,104,VALID,0,VALID,24.415,VALID,55,VALID,0,
2012-07-02, 00:13:04,VALID,1008.31,VALID,0,VALID,104,VALID,0,VALID,24.3956,VALID,55,VALID,0,
2012-07-02, 00:14:04,VALID,1008.31,VALID,0,VALID,104,VALID,0,VALID,24.3761,VALID,55,VALID,0,
2012-07-02, 00:15:04,VALID,1008.32,VALID,0,VALID,104,VALID,0,VALID,24.3761,VALID,55,VALID,0,
2012-07-02, 00:16:04,VALID,1008.32,VALID,0,VALID,104,VALID,0,VALID,24.3761,VALID,55,VALID,0,
2012-07-02, 00:17:04,VALID,1008.34,VALID,0,VALID,104,VALID,0.112112,VALID,24.3352,VALID,55,VALID,0,
2012-07-02, 00:18:04,VALID,1008.37,VALID,0,VALID,104,VALID,0,VALID,24.3566,VALID,55,VALID,0,
2012-07-02, 00:19:04,VALID,1008.33,VALID,0,VALID,104,VALID,0,VALID,24.3566,VALID,55,VALID,0,
2012-07-02, 00:20:04,VALID,1008.33,VALID,0,VALID,104,VALID,0,VALID,24.3371,VALID,55,VALID,0,
2012-07-02, 00:21:04,VALID,1008.33,VALID,0,VALID,104,VALID,0,VALID,24.3158,VALID,55,VALID,0,
2012-07-02, 00:22:04,VALID,1008.32,VALID,0,VALID,104,VALID,0,VALID,24.3176,VALID,55,VALID,0,
2012-07-02, 00:23:04,VALID,1008.29,VALID,0,VALID,104,VALID,0,VALID,24.3176,VALID,55,VALID,0,
2012-07-02, 00:24:04,VALID,1008.3,VALID,0,VALID,104,VALID,0,VALID,24.3176,VALID,55,VALID,0,
2012-07-02, 00:25:04,VALID,1008.29,VALID,0,VALID,104,VALID,0,VALID,24.2963,VALID,55,VALID,0,
2012-07-02, 00:26:04,VALID,1008.29,VALID,0,VALID,104,VALID,0,VALID,24.3176,VALID,55,VALID,0,
2012-07-02, 00:27:04,VALID,1008.26,VALID,0,VALID,104,VALID,0,VALID,24.3176,VALID,55,VALID,0,
2012-07-02, 00:28:04,VALID,1008.24,VALID,0,VALID,104,VALID,0,VALID,24.3158,VALID,55,VALID,0,
2012-07-02, 00:29:04,VALID,1008.22,VALID,0,VALID,104,VALID,0,VALID,24.3566,VALID,55,VALID,0,
2012-07-02, 00:30:04,VALID,1008.18,VALID,0,VALID,104,VALID,0,VALID,24.3566,VALID,55,VALID,0,
2012-07-02, 00:31:04,VALID,1008.14,VALID,0,VALID,104,VALID,0,VALID,24.3761,VALID,55,VALID,0,
2012-07-02, 00:32:04,VALID,1008.12,VALID,0,VALID,104,VALID,0.112112,VALID,24.3761,VALID,55,VALID,0,
2012-07-02, 00:33:04,VALID,1008.09,VALID,0,VALID,104,VALID,0,VALID,24.3761,VALID,55,VALID,0,
2012-07-02, 00:34:04,VALID,1008.09,VALID,0,VALID,104,VALID,0,VALID,24.3761,VALID,55,VALID,0,
2012-07-02, 00:35:04,VALID,1008.05,VALID,0,VALID,104,VALID,0,VALID,24.3566,VALID,55,VALID,0,
2012-07-02, 00:36:04,VALID,1008.06,VALID,0,VALID,104,VALID,0,VALID,24.3547,VALID,55,VALID,0,
2012-07-02, 00:37:04,VALID,1008.08,VALID,0,VALID,104,VALID,0,VALID,24.3956,VALID,55,VALID,0,
2012-07-02, 00:38:04,VALID,1008.05,VALID,0,VALID,104,VALID,0,VALID,24.3937,VALID,55,VALID,0,
2012-07-02, 00:39:04,VALID,1008.04,VALID,0,VALID,104,VALID,0,VALID,24.415,VALID,55,VALID,0,
2012-07-02, 00:40:04,VALID,1008.06,VALID,0,VALID,104,VALID,0,VALID,24.415,VALID,55,VALID,0,
2012-07-02, 00:41:04,VALID,1008.03,VALID,0,VALID,104,VALID,0,VALID,24.3937,VALID,55,VALID,0,
2012-07-02, 00:42:04,VALID,1008.04,VALID,0,VALID,104,VALID,0,VALID,24.415,VALID,55,VALID,0,
2012-07-02, 00:43:04,VALID,1007.99,VALID,0,VALID,104,VALID,0,VALID,24.4345,VALID,55,VALID,0,
2012-07-02, 00:44:04,VALID,1007.99,VALID,0,VALID,104,VALID,0,VALID,24.415,VALID,55,VALID,0,
2012-07-02, 00:45:04,VALID,1007.99,VALID,0,VALID,104,VALID,0,VALID,24.415,VALID,55,VALID,0,
2012-07-02, 00:46:04,VALID,1007.97,VALID,0,VALID,104,VALID,0,VALID,24.3937,VALID,55,VALID,0,
2012-07-02, 00:47:04,VALID,1007.97,VALID,0,VALID,104,VALID,0.112112,VALID,24.3956,VALID,55,VALID,0,
2012-07-02, 00:48:04,VALID,1007.95,VALID,0,VALID,104,VALID,0,VALID,24.3547,VALID,55,VALID,0,
2012-07-02, 00:49:04,VALID,1007.97,VALID,0,VALID,104,VALID,0,VALID,24.3352,VALID,55,VALID,0,
2012-07-02, 00:50:04,VALID,1007.89,VALID,0,VALID,104,VALID,0.112112,VALID,24.3566,VALID,55,VALID,0,
2012-07-02, 00:51:04,VALID,1007.89,VALID,0,VALID,104,VALID,0,VALID,24.3158,VALID,55,VALID,0,
2012-07-02, 00:52:04,VALID,1007.88,VALID,0,VALID,104,VALID,0,VALID,24.2981,VALID,55,VALID,0,
2012-07-02, 00:53:04,VALID,1007.87,VALID,0,VALID,104,VALID,0,VALID,24.2981,VALID,55,VALID,0,
2012-07-02, 00:54:04,VALID,1007.9,VALID,0,VALID,104,VALID,0,VALID,24.2981,VALID,55,VALID,0,
2012-07-02, 00:55:04,VALID,1007.88,VALID,0,VALID,104,VALID,0,VALID,24.2981,VALID,55,VALID,0,
2012-07-02, 00:56:04,VALID,1007.87,VALID,0,VALID,104,VALID,0.112112,VALID,24.2768,VALID,55,VALID,0,
2012-07-02, 00:57:04,VALID,1007.87,VALID,0,VALID,104,VALID,0.112112,VALID,24.2981,VALID,55,VALID,0,
2012-07-02, 00:58:04,VALID,1007.87,VALID,0,VALID,104,VALID,0,VALID,24.2786,VALID,55,VALID,0,
2012-07-02, 00:59:04,VALID,1007.87,VALID,0,VALID,104,VALID,0,VALID,24.2786,VALID,55,VALID,0,
2012-07-02, 01:00:04,VALID,1007.86,VALID,0,VALID,104,VALID,0.112112,VALID,24.2981,VALID,55,VALID,0,
2012-07-02, 01:01:04,VALID,1007.87,VALID,0,VALID,104,VALID,0,VALID,24.2768,VALID,55,VALID,0,
2012-07-02, 01:02:04,VALID,1007.88,VALID,0,VALID,104,VALID,0,VALID,24.2786,VALID,55,VALID,0,
2012-07-02, 01:03:04,VALID,1007.88,VALID,0,VALID,104,VALID,0,VALID,24.2786,VALID,55,VALID,0,
2012-07-02, 01:04:04,VALID,1007.9,VALID,0,VALID,104,VALID,0,VALID,24.2786,VALID,55,VALID,0,
2012-07-02, 01:05:04,VALID,1007.86,VALID,0,VALID,104,VALID,0,VALID,24.2396,VALID,55,VALID,0,
2012-07-02, 01:06:04,VALID,1007.88,VALID,0,VALID,104,VALID,0,VALID,24.1988,VALID,55,VALID,0.383984,
2012-07-02, 01:07:04,VALID,1007.84,VALID,0,VALID,104,VALID,0,VALID,24.1793,VALID,55,VALID,0.507422,
2012-07-02, 01:08:04,VALID,1007.83,VALID,0,VALID,104,VALID,0,VALID,24.2007,VALID,55,VALID,0.453125,
2012-07-02, 01:09:04,VALID,1007.85,VALID,0,VALID,104,VALID,0,VALID,24.1793,VALID,55,VALID,0.499219,
2012-07-02, 01:10:04,VALID,1007.83,VALID,0,VALID,104,VALID,0,VALID,24.1793,VALID,55,VALID,0.197266,
2012-07-02, 01:11:04,VALID,1007.82,VALID,0,VALID,104,VALID,0,VALID,24.1599,VALID,55,VALID,0.128906,
2012-07-02, 01:12:04,VALID,1007.81,VALID,0,VALID,104,VALID,0,VALID,24.1404,VALID,55,VALID,0,
2012-07-02, 01:13:04,VALID,1007.78,VALID,0,VALID,104,VALID,0,VALID,24.1599,VALID,55,VALID,0,
2012-07-02, 01:14:04,VALID,1007.78,VALID,0,VALID,104,VALID,0,VALID,24.1599,VALID,55,VALID,0,
2012-07-02, 01:15:04,VALID,1007.76,VALID,0,VALID,104,VALID,0.112112,VALID,24.1599,VALID,55,VALID,0,
2012-07-02, 01:16:04,VALID,1007.77,VALID,0,VALID,104,VALID,0,VALID,24.1812,VALID,55,VALID,0,
2012-07-02, 01:17:04,VALID,1007.77,VALID,0,VALID,104,VALID,0,VALID,24.1599,VALID,55,VALID,0,
2012-07-02, 01:18:04,VALID,1007.75,VALID,0,VALID,104,VALID,0,VALID,24.1404,VALID,55,VALID,0,
2012-07-02, 01:19:04,VALID,1007.73,VALID,0,VALID,104,VALID,0,VALID,24.1617,VALID,55,VALID,0,
2012-07-02, 01:20:04,VALID,1007.72,VALID,0,VALID,104,VALID,0,VALID,24.1404,VALID,55,VALID,0,
2012-07-02, 01:21:04,VALID,1007.7,VALID,0,VALID,104,VALID,0.112112,VALID,24.1404,VALID,55,VALID,0,
2012-07-02, 01:22:04,VALID,1007.64,VALID,0,VALID,104,VALID,0.112112,VALID,24.1404,VALID,55,VALID,0,
2012-07-02, 01:23:04,VALID,1007.64,VALID,0,VALID,104,VALID,0,VALID,24.1617,VALID,55,VALID,0,
2012-07-02, 01:24:04,VALID,1007.61,VALID,0,VALID,104,VALID,0,VALID,24.1812,VALID,55,VALID,0,
2012-07-02, 01:25:04,VALID,1007.61,VALID,0,VALID,104,VALID,0,VALID,24.1812,VALID,55,VALID,0,
2012-07-02, 01:26:04,VALID,1007.63,VALID,0,VALID,104,VALID,0,VALID,24.2007,VALID,55,VALID,0,
2012-07-02, 01:27:04,VALID,1007.62,VALID,0,VALID,104,VALID,0,VALID,24.1793,VALID,55,VALID,0,
2012-07-02, 01:28:04,VALID,1007.62,VALID,0,VALID,104,VALID,0,VALID,24.2007,VALID,55,VALID,0,
2012-07-02, 01:29:04,VALID,1007.61,VALID,0,VALID,104,VALID,0,VALID,24.1793,VALID,55,VALID,0,
2012-07-02, 01:30:04,VALID,1007.59,VALID,0,VALID,104,VALID,0,VALID,24.2007,VALID,55,VALID,0,
2012-07-02, 01:31:04,VALID,1007.59,VALID,0,VALID,104,VALID,0,VALID,24.2202,VALID,55,VALID,0,
2012-07-02, 01:32:04,VALID,1007.56,VALID,0,VALID,104,VALID,0,VALID,24.1988,VALID,55,VALID,0.351172,
2012-07-02, 01:33:04,VALID,1007.55,VALID,0,VALID,104,VALID,0,VALID,24.2396,VALID,55,VALID,0.244531,
2012-07-02, 01:34:04,VALID,1007.51,VALID,0,VALID,104,VALID,0,VALID,24.2202,VALID,55,VALID,0.250781,
2012-07-02, 01:35:04,VALID,1007.5,VALID,0,VALID,104,VALID,0,VALID,24.1988,VALID,55,VALID,0.197656,
2012-07-02, 01:36:04,VALID,1007.52,VALID,0,VALID,104,VALID,0.112112,VALID,24.2007,VALID,55,VALID,0.190625,
2012-07-02, 01:37:04,VALID,1007.49,VALID,0,VALID,104,VALID,0.112112,VALID,24.1793,VALID,55,VALID,0.0777344,
2012-07-02, 01:38:04,VALID,1007.5,VALID,0,VALID,104,VALID,0,VALID,24.1599,VALID,55,VALID,0,
2012-07-02, 01:39:04,VALID,1007.47,VALID,0,VALID,104,VALID,0,VALID,24.1812,VALID,55,VALID,0,
2012-07-02, 01:40:04,VALID,1007.5,VALID,0,VALID,104,VALID,0,VALID,24.1599,VALID,55,VALID,0,
2012-07-02, 01:41:04,VALID,1007.47,VALID,0,VALID,104,VALID,0,VALID,24.1404,VALID,55,VALID,0,
2012-07-02, 01:42:04,VALID,1007.52,VALID,0,VALID,104,VALID,0.112112,VALID,24.1209,VALID,55,VALID,0,
2012-07-02, 01:43:04,VALID,1007.48,VALID,0,VALID,104,VALID,0.112112,VALID,24.1209,VALID,55,VALID,0,
2012-07-02, 01:44:04,VALID,1007.51,VALID,0,VALID,104,VALID,0,VALID,24.1227,VALID,55,VALID,0,
2012-07-02, 01:45:04,VALID,1007.51,VALID,0,VALID,104,VALID,0,VALID,24.1404,VALID,55,VALID,0,
2012-07-02, 01:46:04,VALID,1007.49,VALID,0,VALID,104,VALID,0,VALID,24.1209,VALID,55,VALID,0.101563,
2012-07-02, 01:47:04,VALID,1007.48,VALID,0,VALID,104,VALID,0,VALID,24.1617,VALID,55,VALID,0.321094,
2012-07-02, 01:48:04,VALID,1007.46,VALID,0,VALID,104,VALID,0,VALID,24.1599,VALID,55,VALID,0,
2012-07-02, 01:49:04,VALID,1007.43,VALID,0,VALID,104,VALID,0,VALID,24.1812,VALID,55,VALID,0,
2012-07-02, 01:50:04,VALID,1007.44,VALID,0,VALID,104,VALID,0.112112,VALID,24.1599,VALID,55,VALID,0,
2012-07-02, 01:51:04,VALID,1007.4,VALID,0,VALID,104,VALID,0,VALID,24.1812,VALID,55,VALID,0,
2012-07-02, 01:52:04,VALID,1007.41,VALID,0,VALID,104,VALID,0,VALID,24.1812,VALID,55,VALID,0,
2012-07-02, 01:53:04,VALID,1007.37,VALID,0,VALID,104,VALID,0,VALID,24.1812,VALID,55,VALID,0,
2012-07-02, 01:54:04,VALID,1007.38,VALID,0,VALID,104,VALID,0.112112,VALID,24.1812,VALID,55,VALID,0,
2012-07-02, 01:55:04,VALID,1007.39,VALID,0,VALID,104,VALID,0,VALID,24.1793,VALID,55,VALID,0,
2012-07-02, 01:56:04,VALID,1007.39,VALID,0,VALID,104,VALID,0,VALID,24.1793,VALID,55,VALID,0.266406,
2012-07-02, 01:57:04,VALID,1007.37,VALID,0,VALID,104,VALID,0,VALID,24.2007,VALID,55,VALID,0.151953,
2012-07-02, 01:58:04,VALID,1007.37,VALID,0,VALID,104,VALID,0,VALID,24.2202,VALID,55,VALID,0.0117188,
2012-07-02, 01:59:04,VALID,1007.38,VALID,0,VALID,104,VALID,0,VALID,24.2396,VALID,55,VALID,0.167187,
2012-07-02, 02:00:04,VALID,1007.34,VALID,0,VALID,104,VALID,0,VALID,24.2183,VALID,55,VALID,0.249219,
2012-07-02, 02:01:04,VALID,1007.35,VALID,0,VALID,104,VALID,0,VALID,24.2396,VALID,55,VALID,0.192969,
2012-07-02, 02:02:04,VALID,1007.36,VALID,0,VALID,104,VALID,0,VALID,24.2202,VALID,55,VALID,0.231641,
2012-07-02, 02:03:04,VALID,1007.37,VALID,0,VALID,104,VALID,0.112112,VALID,24.1988,VALID,55,VALID,0.0964844,
2012-07-02, 02:04:04,VALID,1007.38,VALID,0,VALID,104,VALID,0.112112,VALID,24.2202,VALID,55,VALID,0,
2012-07-02, 02:05:04,VALID,1007.42,VALID,0,VALID,104,VALID,0,VALID,24.2202,VALID,55,VALID,0,
2012-07-02, 02:06:04,VALID,1007.41,VALID,0,VALID,104,VALID,0,VALID,24.2007,VALID,55,VALID,0,
2012-07-02, 02:07:04,VALID,1007.43,VALID,0,VALID,104,VALID,0,VALID,24.2007,VALID,55,VALID,0,
2012-07-02, 02:08:04,VALID,1007.43,VALID,0,VALID,104,VALID,0,VALID,24.2007,VALID,55,VALID,0.196875,
2012-07-02, 02:09:04,VALID,1007.42,VALID,0,VALID,104,VALID,0,VALID,24.1988,VALID,55,VALID,0.170312,
2012-07-02, 02:10:04,VALID,1007.44,VALID,0,VALID,104,VALID,0,VALID,24.1988,VALID,55,VALID,0.178516,
2012-07-02, 02:11:04,VALID,1007.45,VALID,0,VALID,104,VALID,0,VALID,24.2183,VALID,55,VALID,0.175781,
2012-07-02, 02:12:04,VALID,1007.44,VALID,0,VALID,104,VALID,0,VALID,24.2183,VALID,55,VALID,0,
2012-07-02, 02:13:04,VALID,1007.44,VALID,0,VALID,104,VALID,0,VALID,24.2183,VALID,55,VALID,0,
2012-07-02, 02:14:04,VALID,1007.43,VALID,0,VALID,104,VALID,0,VALID,24.2396,VALID,55,VALID,0.0371094,
2012-07-02, 02:15:04,VALID,1007.39,VALID,0,VALID,104,VALID,0,VALID,24.2396,VALID,55,VALID,0.210938,
2012-07-02, 02:16:04,VALID,1007.4,VALID,0,VALID,104,VALID,0.112112,VALID,24.2396,VALID,55,VALID,0,
2012-07-02, 02:17:04,VALID,1007.38,VALID,0,VALID,104,VALID,0,VALID,24.2183,VALID,55,VALID,0.646875,
2012-07-02, 02:18:04,VALID,1007.38,VALID,0,VALID,104,VALID,0,VALID,24.2591,VALID,23,VALID,0.8,
2012-07-02, 02:19:04,VALID,1007.41,VALID,0,VALID,104,VALID,0,VALID,24.2573,VALID,5,VALID,0.880469,
2012-07-02, 02:20:04,VALID,1007.41,VALID,0,VALID,104,VALID,0.112112,VALID,24.2981,VALID,4,VALID,0.492188,
2012-07-02, 02:21:04,VALID,1007.39,VALID,0,VALID,104,VALID,0,VALID,24.2963,VALID,4,VALID,0.610156,
2012-07-02, 02:22:04,VALID,1007.42,VALID,0,VALID,104,VALID,0.112112,VALID,24.2963,VALID,4,VALID,0.341797,
2012-07-02, 02:23:04,VALID,1007.42,VALID,0,VALID,104,VALID,0.112112,VALID,24.2768,VALID,4,VALID,0.383594,
2012-07-02, 02:24:04,VALID,1007.46,VALID,0,VALID,104,VALID,0,VALID,24.2768,VALID,4,VALID,0.299609,
2012-07-02, 02:25:04,VALID,1007.44,VALID,0,VALID,104,VALID,0,VALID,24.2768,VALID,4,VALID,0.0105469,
2012-07-02, 02:26:04,VALID,1007.45,VALID,0,VALID,104,VALID,0,VALID,24.2981,VALID,4,VALID,0,
2012-07-02, 02:27:04,VALID,1007.41,VALID,0,VALID,104,VALID,0,VALID,24.2378,VALID,4,VALID,0,
2012-07-02, 02:28:04,VALID,1007.39,VALID,0,VALID,104,VALID,0,VALID,24.2573,VALID,4,VALID,0,
2012-07-02, 02:29:04,VALID,1007.37,VALID,0,VALID,104,VALID,0,VALID,24.2378,VALID,4,VALID,0,
2012-07-02, 02:30:04,VALID,1007.32,VALID,0,VALID,104,VALID,0,VALID,24.2183,VALID,4,VALID,0,
2012-07-02, 02:31:04,VALID,1007.34,VALID,0,VALID,104,VALID,0,VALID,24.2396,VALID,4,VALID,0,
2012-07-02, 02:32:04,VALID,1007.31,VALID,0,VALID,104,VALID,0,VALID,24.2396,VALID,4,VALID,0,
2012-07-02, 02:33:04,VALID,1007.3,VALID,0,VALID,104,VALID,0,VALID,24.1793,VALID,4,VALID,0,
2012-07-02, 02:34:04,VALID,1007.3,VALID,0,VALID,104,VALID,0,VALID,24.1812,VALID,4,VALID,0,
2012-07-02, 02:35:04,VALID,1007.32,VALID,0,VALID,104,VALID,0,VALID,24.1404,VALID,4,VALID,0,
2012-07-02, 02:36:04,VALID,1007.33,VALID,0,VALID,104,VALID,0,VALID,24.1404,VALID,4,VALID,0,
2012-07-02, 02:37:04,VALID,1007.33,VALID,0,VALID,104,VALID,0,VALID,24.1617,VALID,4,VALID,0.319141,
2012-07-02, 02:38:04,VALID,1007.33,VALID,0,VALID,104,VALID,0,VALID,24.1209,VALID,4,VALID,0.185156,
2012-07-02, 02:39:04,VALID,1007.33,VALID,0,VALID,104,VALID,0,VALID,24.1227,VALID,4,VALID,0.110547,
2012-07-02, 02:40:04,VALID,1007.32,VALID,0,VALID,104,VALID,0,VALID,24.1227,VALID,4,VALID,0,
2012-07-02, 02:41:04,VALID,1007.32,VALID,0,VALID,104,VALID,0,VALID,24.1227,VALID,4,VALID,0.09375,
2012-07-02, 02:42:04,VALID,1007.31,VALID,0,VALID,104,VALID,0.112112,VALID,24.1227,VALID,4,VALID,0.169141,
2012-07-02, 02:43:04,VALID,1007.29,VALID,0,VALID,104,VALID,0,VALID,24.1422,VALID,4,VALID,0.252344,
2012-07-02, 02:44:04,VALID,1007.29,VALID,0,VALID,104,VALID,0,VALID,24.1227,VALID,4,VALID,0.183594,
2012-07-02, 02:45:04,VALID,1007.29,VALID,0,VALID,104,VALID,0,VALID,24.1014,VALID,4,VALID,0.280859,
2012-07-02, 02:46:04,VALID,1007.28,VALID,0,VALID,104,VALID,0,VALID,24.1209,VALID,4,VALID,0.342969,
2012-07-02, 02:47:04,VALID,1007.3,VALID,0,VALID,104,VALID,0.112112,VALID,24.1227,VALID,4,VALID,0.378516,
2012-07-02, 02:48:04,VALID,1007.3,VALID,0,VALID,104,VALID,0,VALID,24.1422,VALID,4,VALID,0.289453,
2012-07-02, 02:49:04,VALID,1007.34,VALID,0,VALID,104,VALID,0.112112,VALID,24.1422,VALID,4,VALID,0.264844,
2012-07-02, 02:50:04,VALID,1007.32,VALID,0,VALID,104,VALID,0,VALID,24.1227,VALID,4,VALID,0,
2012-07-02, 02:51:04,VALID,1007.34,VALID,0,VALID,104,VALID,0,VALID,24.1227,VALID,4,VALID,0,
2012-07-02, 02:52:04,VALID,1007.32,VALID,0,VALID,104,VALID,0,VALID,24.1014,VALID,4,VALID,0,
2012-07-02, 02:53:04,VALID,1007.33,VALID,0,VALID,104,VALID,0,VALID,24.1227,VALID,4,VALID,0,
2012-07-02, 02:54:04,VALID,1007.29,VALID,0,VALID,104,VALID,0,VALID,24.1032,VALID,4,VALID,0,
2012-07-02, 02:55:04,VALID,1007.26,VALID,0,VALID,104,VALID,0,VALID,24.1422,VALID,4,VALID,0,
2012-07-02, 02:56:04,VALID,1007.27,VALID,0,VALID,104,VALID,0,VALID,24.1227,VALID,4,VALID,0,
2012-07-02, 02:57:04,VALID,1007.25,VALID,0,VALID,104,VALID,0,VALID,24.1032,VALID,4,VALID,0,
2012-07-02, 02:58:04,VALID,1007.26,VALID,0,VALID,104,VALID,0,VALID,24.1227,VALID,4,VALID,0,
2012-07-02, 02:59:04,VALID,1007.25,VALID,0,VALID,104,VALID,0,VALID,24.1227,VALID,4,VALID,0,
2012-07-02, 03:00:04,VALID,1007.27,VALID,0,VALID,104,VALID,0,VALID,24.1014,VALID,4,VALID,0,
2012-07-02, 03:01:04,VALID,1007.26,VALID,0,VALID,104,VALID,0,VALID,24.1227,VALID,4,VALID,0,
2012-07-02, 03:02:04,VALID,1007.25,VALID,0,VALID,104,VALID,0,VALID,24.1032,VALID,4,VALID,0.352734,
2012-07-02, 03:03:04,VALID,1007.29,VALID,0,VALID,104,VALID,0,VALID,24.0819,VALID,4,VALID,0.0429688,
2012-07-02, 03:04:04,VALID,1007.27,VALID,0,VALID,104,VALID,0,VALID,24.0837,VALID,4,VALID,0.00820312,
2012-07-02, 03:05:04,VALID,1007.3,VALID,0,VALID,104,VALID,0,VALID,24.0837,VALID,4,VALID,0.212109,
2012-07-02, 03:06:04,VALID,1007.27,VALID,0,VALID,104,VALID,0,VALID,24.0643,VALID,4,VALID,0.347266,
2012-07-02, 03:07:04,VALID,1007.27,VALID,0,VALID,104,VALID,0,VALID,24.0643,VALID,4,VALID,0.357812,
2012-07-02, 03:08:04,VALID,1007.29,VALID,0,VALID,104,VALID,0,VALID,24.0429,VALID,4,VALID,0.187109,
2012-07-02, 03:09:04,VALID,1007.26,VALID,0,VALID,104,VALID,0,VALID,24.0643,VALID,4,VALID,0.0414063,
2012-07-02, 03:10:04,VALID,1007.29,VALID,0,VALID,104,VALID,0.112112,VALID,24.0448,VALID,4,VALID,0,
2012-07-02, 03:11:04,VALID,1007.27,VALID,0,VALID,104,VALID,0,VALID,24.0235,VALID,4,VALID,0,
2012-07-02, 03:12:04,VALID,1007.3,VALID,0,VALID,104,VALID,0,VALID,24.0253,VALID,4,VALID,0,
2012-07-02, 03:13:04,VALID,1007.27,VALID,0,VALID,104,VALID,0,VALID,24.004,VALID,4,VALID,0,
2012-07-02, 03:14:04,VALID,1007.27,VALID,0,VALID,104,VALID,0.112112,VALID,24.0253,VALID,4,VALID,0,
2012-07-02, 03:15:04,VALID,1007.25,VALID,0,VALID,104,VALID,0,VALID,24.004,VALID,4,VALID,0.196094,
2012-07-02, 03:16:04,VALID,1007.23,VALID,0,VALID,104,VALID,0.112112,VALID,24.0235,VALID,4,VALID,0.429688,
2012-07-02, 03:17:04,VALID,1007.26,VALID,0,VALID,104,VALID,0.112112,VALID,24.004,VALID,4,VALID,0.365234,
2012-07-02, 03:18:04,VALID,1007.24,VALID,0,VALID,104,VALID,0,VALID,24.0253,VALID,4,VALID,0.185547,
2012-07-02, 03:19:04,VALID,1007.25,VALID,0,VALID,104,VALID,0,VALID,24.0253,VALID,4,VALID,0.206641,
2012-07-02, 03:20:04,VALID,1007.22,VALID,0,VALID,104,VALID,0,VALID,24.0253,VALID,4,VALID,0.208594,
2012-07-02, 03:21:04,VALID,1007.24,VALID,0,VALID,104,VALID,0,VALID,24.0253,VALID,4,VALID,0.211328,
2012-07-02, 03:22:04,VALID,1007.24,VALID,0,VALID,104,VALID,0,VALID,24.0448,VALID,4,VALID,0.0847656,
2012-07-02, 03:23:04,VALID,1007.21,VALID,0,VALID,104,VALID,0,VALID,24.0448,VALID,4,VALID,0.296484,
2012-07-02, 03:24:04,VALID,1007.22,VALID,0,VALID,104,VALID,0,VALID,24.0448,VALID,4,VALID,0.0183594,
2012-07-02, 03:25:04,VALID,1007.19,VALID,0,VALID,104,VALID,0,VALID,24.0643,VALID,4,VALID,0,
2012-07-02, 03:26:04,VALID,1007.18,VALID,0,VALID,104,VALID,0.112112,VALID,24.0624,VALID,4,VALID,0.003125,
2012-07-02, 03:27:04,VALID,1007.18,VALID,0,VALID,104,VALID,0,VALID,24.0643,VALID,4,VALID,0,
2012-07-02, 03:28:04,VALID,1007.16,VALID,0,VALID,104,VALID,0.112112,VALID,24.0837,VALID,4,VALID,0,
2012-07-02, 03:29:04,VALID,1007.14,VALID,0,VALID,104,VALID,0,VALID,24.0819,VALID,4,VALID,0,
2012-07-02, 03:30:04,VALID,1007.11,VALID,0,VALID,104,VALID,0,VALID,24.0837,VALID,4,VALID,0,
2012-07-02, 03:31:04,VALID,1007.12,VALID,0,VALID,104,VALID,0,VALID,24.1032,VALID,4,VALID,0,
2012-07-02, 03:32:04,VALID,1007.11,VALID,0,VALID,104,VALID,0,VALID,24.0837,VALID,4,VALID,0,
2012-07-02, 03:33:04,VALID,1007.11,VALID,0,VALID,104,VALID,0,VALID,24.0837,VALID,4,VALID,0,
2012-07-02, 03:34:04,VALID,1007.11,VALID,0,VALID,104,VALID,0,VALID,24.0429,VALID,4,VALID,0,
2012-07-02, 03:35:04,VALID,1007.09,VALID,0,VALID,104,VALID,0.112112,VALID,24.0643,VALID,4,VALID,0,
2012-07-02, 03:36:04,VALID,1007.13,VALID,0,VALID,104,VALID,0,VALID,24.0448,VALID,4,VALID,0,
2012-07-02, 03:37:04,VALID,1007.12,VALID,0,VALID,104,VALID,0,VALID,24.0643,VALID,4,VALID,0,
2012-07-02, 03:38:04,VALID,1007.16,VALID,0,VALID,104,VALID,0.112112,VALID,24.0429,VALID,4,VALID,0,
2012-07-02, 03:39:04,VALID,1007.16,VALID,0,VALID,104,VALID,0,VALID,24.0448,VALID,4,VALID,0,
2012-07-02, 03:40:04,VALID,1007.16,VALID,0,VALID,104,VALID,0.112112,VALID,24.0429,VALID,4,VALID,0,
2012-07-02, 03:41:04,VALID,1007.15,VALID,0,VALID,104,VALID,0.112112,VALID,24.0235,VALID,4,VALID,0,
2012-07-02, 03:42:04,VALID,1007.17,VALID,0,VALID,104,VALID,0,VALID,24.004,VALID,4,VALID,0,
2012-07-02, 03:43:04,VALID,1007.18,VALID,0,VALID,104,VALID,0,VALID,24.0253,VALID,4,VALID,0,
2012-07-02, 03:44:04,VALID,1007.18,VALID,0,VALID,104,VALID,0,VALID,24.0058,VALID,4,VALID,0,
2012-07-02, 03:45:04,VALID,1007.23,VALID,0,VALID,104,VALID,0,VALID,23.9845,VALID,4,VALID,0,
2012-07-02, 03:46:04,VALID,1007.24,VALID,0,VALID,104,VALID,0,VALID,23.9863,VALID,4,VALID,0.133594,
2012-07-02, 03:47:04,VALID,1007.28,VALID,0,VALID,104,VALID,0,VALID,23.9863,VALID,4,VALID,0.441797,
2012-07-02, 03:48:04,VALID,1007.29,VALID,0,VALID,104,VALID,0.112112,VALID,23.965,VALID,4,VALID,0.292969,
2012-07-02, 03:49:04,VALID,1007.3,VALID,0,VALID,104,VALID,0.112112,VALID,23.9668,VALID,4,VALID,0.333203,
2012-07-02, 03:50:04,VALID,1007.31,VALID,0,VALID,104,VALID,0,VALID,23.9863,VALID,4,VALID,0.343359,
2012-07-02, 03:51:04,VALID,1007.35,VALID,0,VALID,104,VALID,0,VALID,23.9668,VALID,4,VALID,0.33125,
2012-07-02, 03:52:04,VALID,1007.36,VALID,0,VALID,104,VALID,0,VALID,23.9242,VALID,4,VALID,0.275781,
2012-07-02, 03:53:04,VALID,1007.38,VALID,0,VALID,104,VALID,0,VALID,23.9473,VALID,4,VALID,0.226172,
2012-07-02, 03:54:05,VALID,1007.37,VALID,0,VALID,104,VALID,0,VALID,23.926,VALID,4,VALID,0.133203,
2012-07-02, 03:55:05,VALID,1007.38,VALID,0,VALID,104,VALID,0.112112,VALID,23.9278,VALID,4,VALID,0.264453,
2012-07-02, 03:56:04,VALID,1007.42,VALID,0,VALID,104,VALID,0,VALID,23.9278,VALID,4,VALID,0,
2012-07-02, 03:57:04,VALID,1007.41,VALID,0,VALID,104,VALID,0,VALID,23.9278,VALID,4,VALID,0.0859375,
2012-07-02, 03:58:05,VALID,1007.39,VALID,0,VALID,104,VALID,0,VALID,23.9278,VALID,4,VALID,0.163281,
2012-07-02, 03:59:05,VALID,1007.41,VALID,0,VALID,104,VALID,0,VALID,23.9278,VALID,4,VALID,0,
2012-07-02, 04:00:05,VALID,1007.41,VALID,0,VALID,104,VALID,0,VALID,23.9278,VALID,4,VALID,0,
2012-07-02, 04:01:05,VALID,1007.4,VALID,0,VALID,104,VALID,0,VALID,23.9084,VALID,4,VALID,0,
2012-07-02, 04:02:05,VALID,1007.43,VALID,0,VALID,104,VALID,0.112112,VALID,23.9065,VALID,4,VALID,0,
2012-07-02, 04:03:05,VALID,1007.41,VALID,0,VALID,104,VALID,0,VALID,23.9278,VALID,4,VALID,0,
2012-07-02, 04:04:05,VALID,1007.41,VALID,0,VALID,104,VALID,0.112112,VALID,23.9473,VALID,4,VALID,0,